Location: Waco, TX
(31.5480°N, 97.1670°W)
Time: 15:17:24
(UTC-05:00)

ISS - Pass Details

Date: 12 October 2018
Orbit: 403 x 408 km, 51.6° (Epoch: 17 October)

Event Time Altitude Azimuth Distance (km) Brightness Sun altitude
Rises 19:58:02 0° 317° (NW) 2,331 0.7 -13.2°
Reaches altitude 10° 20:00:08 10° 320° (NW) 1,468 -0.4 -13.6°
Maximum altitude 20:03:25 69° 44° (NE) 437 -3.9 -14.3°
Enters shadow 20:05:03 27° 122° (ESE) 826 -2.8 -14.6°
Drops below altitude 10° 20:06:41 10° 129° (SE) 1,458 - -15.0°
Sets 20:08:45 0° 131° (SE) 2,314 - -15.4°
